Погода в Большом Судачьем

Россия / Волгоградская область     50°49′40″N   44°05′18″E
темп.,
°C
ветер,
м/с
пор.,
м/с
влажн.,
%
обл.,
%
осадки,
мм/ч
давл.,
гПа
погр.,
м
27 октября, ср
ср2700:00+1юз495689 0.0 1031148
03:000зюз495713 0.0 1030145
06:00−1юз485616 0.0 1030127
09:00+3юз5943100 0.0 1029287
12:00+8юз682988 0.0 1028732
15:00+9юз69275 0.0 1025895
18:00+4ююз411384 0.0 1025192
21:00+3юз513405 0.0 1024252
28 октября, чт
чт2800:00+2юз512425 0.0 1023215
03:00+1юз49470 0.0 1023161
06:000юз4848100 0.0 1022133
09:00+4зюз4741100 0.0 1022243
12:00+7зюз5745100 0.0 1021454
15:00+8зюз575098 0.0 1019556
18:00+6юз4962100 0.0 1019206
21:00+6юз4106996 0.0 1019254
29 октября, пт
пт2900:00+6зюз41078100 0.3 1018358
03:00+6зюз4892100 1.3 1018366
06:00+7сз3997100 0.6 1020419
09:00+8с5988100 0.6 1023664
12:00+9ссв6873100 0.0 1025785
15:00+9св676385 0.0 1028959
18:00+7св4761100 0.0 1030415
21:00+4в36845 0.0 1032117
30 октября, сб
сб3000:00+2в22860 0.0 103431
03:00+1в12855 0.0 103510
06:000всв118451 0.0 103510
09:00+4в116827 0.0 1037145
12:00+8з115123 0.0 1036500
15:00+9сз11455 0.0 1035573
18:00+5з00592 0.0 103610
21:00+4ююз22635 0.0 103610
31 октября, вс
вс3100:00+3юз11655 0.0 103610
03:00+2зюз11650 0.0 103610
06:00+2ю00670 0.0 103610
09:00+5ююв11510 0.0 1036103
12:00+10ююв22310 0.0 1035469
15:00+11ююв23260 0.0 1034584
18:00+6ююв33350 0.0 103317
21:00+5ююв33550 0.0 103440